Location: Härggis
(46.9540°N, 8.4897°E)
Time: 22:05:58
(UTC+00:00)

Cosmos 1943 Rocket - Pass Details

Date: 27 May 2022
Orbit: 810 x 845 km, 71.0° (Epoch: 03 July)

Event Time Altitude Azimuth Distance (km) Brightness Sun altitude
Rises 02:51:05 0° 315° (NW) 3,413 5.3 -7.3°
Reaches altitude 10° 02:55:05 10° 288° (WNW) 2,471 4.3 -6.8°
Maximum altitude 02:57:19 12° 264° (W) 2,296 4.0 -6.5°
Drops below altitude 10° 02:59:32 10° 241° (WSW) 2,462 4.0 -6.2°
Enters shadow 03:00:52 - 230° (SW) 2,702 4.1 -6.0°
